[[{"header":{"parameterUnit":"m.s-1","parameterCategory":1,"la1":30.2991,"la2":30.254,"lo1":-89.0895,"lo2":-89.0444,"dy":0.0017,"dx":0.0017,"nx":28,"ny":28,"refTime":"2023-09-11T03:00:00:Z","depth":0,"parameterNumber":2,"parameterNumberName":"U-component_of_WINDS"},"data":[0,0,0,0,0,0,0,0,0,0,0,0,0,0,0,0,0,0,0,0,0,0,0,0,0,0,0,0,0,0,0,0,0,0,0,0,0,0,0,0,0,0,0,0,0,0,0,0,0,0,0,0,0,0,0,0,0,0,-1.6472,-1.6471,0,-1.6376,-1.6375,-1.6374,-1.6311,-1.6311,-1.6311,-1.631,-1.621,-1.6207,-1.6205,0,0,0,0,0,0,0,0,0,0,0,0,0,-1.6601,-1.6599,-1.6472,-1.6471,-1.647,-1.6376,-1.6375,-1.6374,-1.6311,-1.6311,-1.631,-1.631,-1.621,-1.6208,-1.6205,0,0,0,0,0,0,0,0,0,0,0,0,0,-1.6529,-1.6599,-1.6472,-1.6428,-1.6423,-1.6376,-1.6375,-1.6373,-1.6312,-1.6311,-1.631,-1.631,-1.6211,-1.6208,-1.6205,-1.6195,0,0,-1.6194,-1.6193,0,0,0,0,0,0,0,0,-1.6533,-1.6524,-1.6435,-1.6431,-1.6425,-1.6355,-1.6383,-1.6313,-1.6312,-1.6354,-1.631,-1.631,-1.6258,-1.6251,-1.6234,-1.619,-1.6186,-1.6194,-1.6192,-1.619,-1.6189,0,0,0,0,0,0,0,-1.6538,-1.6528,-1.6434,-1.6434,-1.6428,-1.6412,-1.6401,-1.637,-1.631,-1.635,-1.6345,-1.6335,-1.6255,-1.6238,-1.6231,-1.6184,-1.6194,-1.6191,-1.6189,-1.6187,-1.6128,-1.6129,0,0,0,0,0,0,-1.6551,-1.6533,-1.6437,-1.6431,-1.6479,-1.641,-1.6398,-1.6378,-1.6311,-1.63,-1.6335,-1.6332,-1.6244,-1.6236,-1.6228,-1.6212,-1.619,-1.6187,-1.6185,-1.6128,-1.6128,-1.6129,0,0,0,0,0,0,-1.6554,-1.6543,-1.6441,-1.6481,-1.6467,-1.6409,-1.6387,-1.6377,-1.6359,-1.63,-1.6289,-1.6328,-1.6243,-1.6233,-1.6204,-1.6208,-1.6185,-1.6182,-1.6127,-1.6128,-1.6129,-1.618,0,0,0,0,0,0,-1.6558,-1.6544,-1.654,-1.6481,-1.6465,-1.6419,-1.6387,-1.6375,-1.6353,-1.6348,-1.629,-1.628,-1.6242,-1.6209,-1.62,-1.6202,-1.6179,-1.6126,-1.6127,-1.6128,-1.6178,-1.6183,-1.6187,0,0,0,0,0,-1.6563,-1.6558,-1.654,-1.6529,-1.6458,-1.6419,-1.641,-1.6367,-1.6354,-1.6349,-1.6311,-1.6282,-1.6209,-1.6207,-1.6196,-1.6197,-1.6126,-1.6127,-1.6128,-1.6176,-1.6182,-1.6187,0,0,0,0,0,0,-1.6617,-1.6549,-1.6529,-1.6505,-1.6469,-1.6409,-1.6401,-1.6375,-1.6341,-1.6337,-1.6285,-1.6272,-1.6249,-1.622,-1.6219,-1.6185,-1.6164,-1.6163,-1.6204,-1.6209,-1.6214,-1.622,-1.6177,0,0,0,0,0,-1.6627,-1.6602,-1.6543,-1.6528,-1.6511,-1.646,-1.6441,-1.6411,-1.6371,-1.6355,-1.6315,-1.6277,-1.6246,-1.6226,-1.6194,-1.6174,-1.6161,-1.617,-1.6174,-1.6178,-1.6178,-1.6166,-1.6169,-1.6133,-1.6133,-1.6133,0,0,-1.6646,-1.6606,-1.6592,-1.6538,-1.6506,-1.6481,-1.6447,-1.6421,-1.6402,-1.6351,-1.6322,-1.6291,-1.6245,-1.6222,-1.6209,-1.6197,-1.6185,-1.618,-1.6183,-1.618,-1.6167,-1.6171,-1.6174,-1.6133,-1.6133,-1.6133,0,0,-1.6667,-1.6635,-1.6618,-1.6588,-1.6541,-1.6507,-1.6504,-1.6448,-1.6426,-1.6396,-1.6358,-1.6334,-1.6281,-1.625,-1.6227,-1.624,-1.6211,-1.6231,-1.6253,-1.6242,-1.6245,-1.6247,-1.6251,-1.6254,-1.6231,-1.6231,-1.6231,0,-1.6697,-1.6657,-1.6613,-1.659,-1.6567,-1.6522,-1.6505,-1.6477,-1.6422,-1.6407,-1.6395,-1.6328,-1.6294,-1.6262,-1.6266,-1.6249,-1.6243,-1.6236,-1.6248,-1.625,-1.6252,-1.6255,-1.6257,-1.6233,-1.6233,-1.6233,-1.6233,0,-1.6695,-1.6669,-1.6661,-1.661,-1.6587,-1.6567,-1.652,-1.6501,-1.6475,-1.6442,-1.6413,-1.6371,-1.6329,-1.632,-1.6293,-1.6285,-1.6279,-1.6258,-1.6236,-1.6258,-1.6261,-1.6262,-1.6237,-1.6236,-1.6235,-1.6235,0,0,-1.6747,-1.6673,-1.6671,-1.6648,-1.6593,-1.6572,-1.655,-1.6511,-1.6496,-1.646,-1.6441,-1.6398,-1.6379,-1.6353,-1.6323,-1.6313,-1.6326,-1.6294,-1.6292,-1.6301,-1.6314,-1.6329,-1.6331,-1.6307,-1.6307,-1.6307,-1.6318,0,-1.6759,-1.6719,-1.668,-1.6653,-1.6628,-1.6585,-1.6567,-1.6531,-1.6501,-1.6476,-1.6442,-1.6412,-1.639,-1.6374,-1.6363,-1.6327,-1.6327,-1.6325,-1.6288,-1.6287,-1.63,-1.6332,-1.6348,-1.636,-1.6318,-1.6319,-1.6319,0,-1.6768,-1.6735,-1.6707,-1.6656,-1.6644,-1.6628,-1.6589,-1.6565,-1.6525,-1.6503,-1.6476,-1.6444,-1.642,-1.6402,-1.6367,-1.6367,-1.6349,-1.6329,-1.6329,-1.6323,-1.6303,-1.6327,-1.6362,-1.6364,-1.632,-1.632,-1.6319,0,-1.6808,-1.6757,-1.6733,-1.6714,-1.6654,-1.6644,-1.6619,-1.6578,-1.6557,-1.6523,-1.6509,-1.6473,-1.6453,-1.6426,-1.6385,-1.6376,-1.6355,-1.6334,-1.6336,-1.6337,-1.6332,-1.6333,-1.6365,-1.6323,-1.6323,-1.6323,-1.6323,0,-1.6826,-1.681,-1.675,-1.6735,-1.6716,-1.6672,-1.6654,-1.6625,-1.6589,-1.6568,-1.6529,-1.651,-1.6458,-1.6433,-1.6401,-1.6377,-1.6369,-1.635,-1.6342,-1.6353,-1.6356,-1.634,-1.6338,-1.6324,-1.6324,-1.6324,-1.6323,0,-1.6866,-1.6826,-1.6797,-1.6743,-1.673,-1.6718,-1.6672,-1.6656,-1.6625,-1.6599,-1.659,-1.654,-1.6509,-1.6466,-1.6421,-1.6399,-1.638,-1.6367,-1.6394,-1.6388,-1.6393,-1.6393,-1.6416,-1.6416,-1.6375,-1.6376,-1.6376,0,-1.6879,-1.6866,-1.6812,-1.6795,-1.6772,-1.6745,-1.6724,-1.6681,-1.666,-1.6614,-1.6604,-1.657,-1.654,-1.6492,-1.6451,-1.6417,-1.6402,-1.6413,-1.6397,-1.6409,-1.6402,-1.6403,-1.6401,-1.6416,-1.6417,-1.6418,-1.6418,0,-1.6907,-1.6888,-1.686,-1.6825,-1.6801,-1.6771,-1.674,-1.6728,-1.6678,-1.6657,-1.6625,-1.6602,-1.6557,-1.6523,-1.6484,-1.6458,-1.6429,-1.6424,-1.6422,-1.6433,-1.6449,-1.644,-1.6403,-1.6423,-1.6422,-1.6422,-1.6422,-1.6422,-1.6934,-1.692,-1.688,-1.685,-1.6822,-1.6794,-1.6777,-1.6744,-1.6716,-1.6677,-1.6653,-1.6622,-1.6583,-1.6527,-1.6502,-1.6477,-1.6466,-1.6464,-1.6463,-1.6463,-1.6467,-1.6454,-1.647,-1.647,-1.6469,-1.6469,-1.6469,0,-1.6959,-1.6932,-1.6905,-1.6862,-1.6839,-1.6816,-1.678,-1.6762,-1.6735,-1.6701,-1.6673,-1.6637,-1.6605,-1.6563,-1.6528,-1.6516,-1.6502,-1.6508,-1.6508,-1.6502,-1.6479,-1.6484,-1.652,-1.652,-1.652,-1.652,-1.652,-1.652,-1.6969,-1.6945,-1.6922,-1.6884,-1.6857,-1.6827,-1.6808,-1.6782,-1.6755,-1.6716,-1.669,-1.6663,-1.6626,-1.6588,-1.6558,-1.6546,-1.6535,-1.6545,-1.6529,-1.6508,-1.6504,-1.6499,-1.6503,-1.6543,-1.6543,-1.6554,-1.6554,-1.6554]},{"header":{"parameterUnit":"m.s-1","parameterCategory":1,"la1":30.2991,"la2":30.254,"lo1":-89.0895,"lo2":-89.0444,"dy":0.0017,"dx":0.0017,"nx":28,"ny":28,"refTime":"2023-09-11T03:00:00:Z","depth":0,"parameterNumber":3,"parameterNumberName":"V-component_of_WINDS"},"data":[0,0,0,0,0,0,0,0,0,0,0,0,0,0,0,0,0,0,0,0,0,0,0,0,0,0,0,0,0,0,0,0,0,0,0,0,0,0,0,0,0,0,0,0,0,0,0,0,0,0,0,0,0,0,0,0,0,0,2.0232,2.0232,0,2.0262,2.0262,2.0263,2.032,2.0321,2.0322,2.0323,2.0351,2.0351,2.0351,0,0,0,0,0,0,0,0,0,0,0,0,0,2.0221,2.0221,2.0232,2.0232,2.0232,2.0262,2.0262,2.0263,2.032,2.0321,2.0322,2.0324,2.0351,2.0351,2.0351,0,0,0,0,0,0,0,0,0,0,0,0,0,2.0236,2.0221,2.0232,2.0264,2.0268,2.0262,2.0262,2.0263,2.0319,2.0321,2.0323,2.0324,2.0351,2.0351,2.035,2.0314,0,0,2.0349,2.0349,0,0,0,0,0,0,0,0,2.0235,2.0236,2.0259,2.0262,2.0266,2.0289,2.0269,2.028,2.0319,2.03,2.0323,2.0325,2.0329,2.033,2.0332,2.0315,2.0317,2.0349,2.0349,2.0349,2.0348,0,0,0,0,0,0,0,2.0234,2.0235,2.0244,2.0259,2.0263,2.0277,2.0281,2.0271,2.0304,2.0301,2.0306,2.0309,2.0331,2.0333,2.0333,2.0317,2.0349,2.0349,2.0348,2.0348,2.0271,2.027,0,0,0,0,0,0,2.0228,2.0234,2.0243,2.0244,2.0254,2.0276,2.028,2.028,2.0305,2.031,2.0307,2.0311,2.0332,2.0334,2.0334,2.0293,2.0349,2.0348,2.0348,2.0273,2.0271,2.0269,0,0,0,0,0,0,2.0228,2.0229,2.0241,2.024,2.0243,2.0274,2.0273,2.0279,2.0281,2.0309,2.0315,2.0303,2.0334,2.0335,2.0319,2.0295,2.0348,2.0348,2.0275,2.0272,2.027,2.0209,0,0,0,0,0,0,2.0227,2.0228,2.0215,2.024,2.0243,2.0225,2.0272,2.0279,2.028,2.0286,2.0306,2.0311,2.0335,2.0319,2.0318,2.0295,2.0347,2.0277,2.0274,2.0271,2.0214,2.0205,2.0197,0,0,0,0,0,2.0227,2.0196,2.0214,2.0215,2.0227,2.0224,2.0226,2.0255,2.0278,2.0265,2.0283,2.0311,2.0298,2.0317,2.0317,2.0293,2.0279,2.0275,2.0271,2.0217,2.0207,2.0198,0,0,0,0,0,0,2.0167,2.02,2.022,2.0197,2.0207,2.0234,2.0218,2.0243,2.0246,2.0251,2.0286,2.029,2.0269,2.0279,2.03,2.0259,2.0293,2.0289,2.0252,2.0242,2.0234,2.0231,2.0347,0,0,0,0,0,2.0151,2.0146,2.0175,2.0152,2.0156,2.0186,2.0186,2.0207,2.0219,2.0223,2.024,2.025,2.0248,2.0246,2.0246,2.0216,2.0221,2.02,2.0191,2.0185,2.018,2.0164,2.0155,2.0256,2.0256,2.0256,0,0,2.0118,2.0135,2.013,2.014,2.0151,2.0144,2.0189,2.0181,2.0176,2.0222,2.0207,2.022,2.0233,2.021,2.02,2.0218,2.0153,2.018,2.0174,2.0173,2.0159,2.0149,2.0141,2.0253,2.0254,2.0254,0,0,2.0053,2.0067,2.0049,2.0059,2.0075,2.0095,2.0091,2.0114,2.0124,2.0111,2.0145,2.014,2.0136,2.0144,2.0147,2.0087,2.0112,2.0086,2.0043,2.0027,2.0019,2.0012,1.999,1.9981,2.0082,2.0082,2.0082,0,2.001,2.0002,2.0036,2.0025,2.0028,2.0071,2.0052,2.006,2.0075,2.0075,2.0096,2.0092,2.0104,2.0083,2.0068,2.007,2.0065,2.0083,2.0018,2.0012,2.0005,1.9984,1.9976,2.0078,2.0079,2.0079,2.0079,0,1.9947,1.9941,1.9924,1.9938,1.994,1.9925,1.9956,1.9953,1.9975,1.9993,1.9978,1.9994,1.9998,1.9995,2.0016,1.9976,1.9987,2.0012,2.0047,1.9992,1.9972,1.9964,2.0073,2.0075,2.0076,2.0077,0,0,1.9844,1.9878,1.9871,1.9878,1.9899,1.9895,1.9882,1.9887,1.9883,1.9892,1.9881,1.9878,1.9902,1.9906,1.9928,1.9914,1.9864,1.9941,1.9942,1.9925,1.982,1.98,1.979,1.9882,1.9881,1.9879,1.9819,0,1.9783,1.9763,1.9794,1.9766,1.9761,1.9803,1.9791,1.9803,1.9819,1.9816,1.9835,1.9831,1.9864,1.9866,1.9855,1.9872,1.9843,1.9878,1.9871,1.987,1.9864,1.978,1.9758,1.97,1.9811,1.981,1.9809,0,1.9709,1.9715,1.9688,1.9711,1.971,1.9699,1.9706,1.9704,1.9717,1.973,1.9735,1.9762,1.975,1.9785,1.9769,1.9792,1.9791,1.9799,1.9798,1.9797,1.9835,1.9775,1.9682,1.9673,1.9798,1.9799,1.98,0,1.9635,1.9636,1.962,1.9625,1.9652,1.9643,1.9654,1.967,1.9671,1.9677,1.9677,1.9681,1.9683,1.9685,1.9712,1.9736,1.9692,1.973,1.9701,1.97,1.9688,1.9688,1.9592,1.9691,1.9691,1.9691,1.9691,0,1.9562,1.9544,1.9587,1.9577,1.9557,1.9592,1.9571,1.9586,1.96,1.9593,1.9629,1.9621,1.9658,1.9654,1.9676,1.9658,1.9659,1.9668,1.9674,1.9664,1.9662,1.9662,1.9666,1.9689,1.9689,1.969,1.969,0,1.9475,1.9504,1.9489,1.9516,1.9523,1.9506,1.953,1.9521,1.9541,1.9531,1.9531,1.9561,1.9558,1.9586,1.9588,1.9603,1.9575,1.9588,1.957,1.9573,1.9543,1.9545,1.9442,1.943,1.9537,1.9536,1.9535,0,1.9426,1.9413,1.9439,1.9438,1.9447,1.9443,1.9445,1.9479,1.9479,1.9494,1.9483,1.9484,1.9486,1.9479,1.9501,1.9503,1.9516,1.948,1.9516,1.9506,1.9513,1.9513,1.9511,1.9471,1.947,1.9469,1.9468,0,1.9336,1.9351,1.9352,1.9358,1.9359,1.9365,1.9374,1.937,1.9408,1.9405,1.9404,1.9405,1.9408,1.9408,1.9414,1.9425,1.9451,1.9457,1.945,1.9439,1.9428,1.9432,1.9547,1.9458,1.9459,1.946,1.9461,1.9461,1.9266,1.9256,1.9273,1.9273,1.9283,1.929,1.9283,1.9302,1.9302,1.9308,1.9328,1.9322,1.9337,1.9348,1.9356,1.9351,1.9369,1.9359,1.9357,1.9353,1.9347,1.9431,1.9353,1.9353,1.9354,1.9354,1.9354,0,1.9176,1.919,1.9189,1.92,1.92,1.9228,1.9239,1.9236,1.9231,1.9243,1.9245,1.9242,1.9242,1.9265,1.9267,1.9259,1.9272,1.9258,1.9258,1.926,1.9332,1.9337,1.9248,1.9248,1.9248,1.9248,1.9248,1.9248,1.9129,1.9114,1.9131,1.912,1.9134,1.9129,1.9133,1.914,1.9149,1.9145,1.9146,1.9161,1.9176,1.918,1.9181,1.9188,1.9186,1.9168,1.9179,1.9245,1.9255,1.9265,1.927,1.9168,1.9168,1.9107,1.9107,1.9106]}]]